Lid_Strength_Index
3 3 4 4 4 5 5 5 4 4 4 4 4 4 3 3 2 2 2 1 2 2 2 2 2 2 2 1 1 1 2 2 4 3 2 2 1 1 0 0 0 1 0
3 3 4 5 4 4 5 5 5 5 5 4 4 4 4 4 3 3 3 3 2 3 2 2 2 1 2 2 2 2 2 2 3 4 2 2 2 1 1 1 0 -0 -0
4 5 6 6 5 5 4 4 3 2 2 2 2 3 2 2 3 3 4 4 4 4 3 3 2 2 2 2 2 2 2 2 2 3 3 2 2 1 2 1 1 1 -0
6 6 6 6 5 5 4 3 3 3 3 3 3 3 3 3 2 3 3 3 3 4 4 3 2 2 2 2 2 2 3 3 3 3 3 3 2 2 1 2 3 1 1
5 5 5 4 4 4 3 3 3 3 3 3 4 4 4 3 2 2 2 3 3 3 3 3 2 1 1 1 1 2 2 3 3 4 4 4 3 3 3 2 3 2 2
4 5 4 4 4 4 3 3 3 3 3 4 4 4 4 3 1 1 1 2 2 3 3 2 1 1 1 1 1 1 1 2 3 4 4 4 4 3 2 3 3 3 4
5 4 4 4 4 2 2 3 4 4 4 5 5 5 5 4 2 2 2 3 1 3 4 2 1 1 1 1 2 1 1 1 1 2 3 3 3 2 2 3 3 3 3
5 5 4 4 3 3 3 4 5 4 5 5 6 5 5 5 3 3 3 5 3 3 3 1 1 2 1 1 1 2 2 1 2 1 1 1 1 1 2 2 3 3 2
5 5 4 4 5 5 5 6 6 6 6 6 6 6 6 6 4 4 4 6 5 5 3 2 2 1 2 3 3 3 2 2 1 2 2 2 2 2 2 3 3 3 4
5 5 5 5 6 6 6 6 6 6 6 6 6 6 5 6 4 4 4 6 6 6 5 4 2 2 3 4 4 4 4 3 2 2 2 2 2 2 2 2 2 4 4
4 4 5 5 6 6 6 5 6 6 7 7 7 7 7 6 6 4 4 5 5 5 5 5 4 3 4 5 5 4 2 2 3 4 3 2 2 2 2 2 2 2 3
5 5 5 5 4 5 6 6 6 6 7 8 8 8 7 7 5 5 5 5 5 5 5 4 3 3 5 5 5 4 3 3 3 4 4 3 3 3 2 1 1 2 1
6 6 6 5 5 5 6 6 6 7 7 8 8 8 8 6 6 5 5 4 4 5 4 3 3 4 4 3 3 3 3 3 4 4 4 3 3 2 1 2 1 1 1
6 7 6 6 6 6 6 6 6 7 7 7 7 8 8 8 7 6 7 7 5 5 4 4 3 4 4 4 4 3 3 2 2 2 3 3 2 2 3 3 3 3 3
6 6 6 7 7 7 6 6 5 5 5 6 7 7 8 8 7 6 7 7 7 5 5 4 4 4 5 5 5 5 4 3 4 3 3 2 3 3 2 2 2 2 3
8 7 7 7 8 7 7 6 5 5 5 7 7 6 6 6 6 7 8 8 7 6 5 5 4 4 5 5 7 7 6 6 6 5 5 4 2 3 3 3 2 3 3
8 7 7 9 9 7 7 7 7 7 6 7 7 7 7 6 7 8 8 7 6 5 6 5 5 5 4 4 6 7 7 8 7 7 7 6 6 4 3 3 3 3 3
7 5 7 8 8 7 9 9 8 8 8 8 7 7 7 8 8 8 7 6 7 7 7 7 6 5 5 5 4 6 7 7 8 9 8 8 7 7 5 4 3 3 3
7 7 7 8 8 7 7 8 8 8 8 8 8 7 6 7 8 8 7 6 7 7 7 7 6 6 6 6 6 5 6 7 8 9 9 9 9 8 7 6 5 6 5
6 4 4 5 6 7 7 6 7 7 7 7 7 8 7 7 7 7 7 6 6 6 6 6 6 6 6 6 6 6 6 7 8 9 10 10 10 9 8 7 6 6 4
5 5 3 5 5 6 6 6 6 6 6 6 6 6 6 7 7 8 7 6 6 5 5 5 5 6 6 6 5 6 6 7 8 9 10 10 10 11 9 8 7 5 4
4 5 6 5 5 5 5 5 5 5 5 5 6 5 6 6 6 6 7 6 5 5 5 5 5 5 5 5 5 5 6 6 7 9 11 11 11 11 10 8 7 6 5
4 5 5 5 5 4 5 5 4 4 4 4 4 5 5 6 5 5 6 5 6 5 4 5 5 6 5 5 5 5 5 6 7 10 12 12 11 12 11 10 8 7 6
4 5 5 4 4 4 4 4 3 4 4 3 4 4 3 4 5 5 5 5 5 4 4 6 5 6 6 5 4 5 6 8 8 10 12 12 13 13 11 10 8 7 6
6 6 6 5 5 4 4 4 4 3 3 3 3 4 4 3 3 5 5 4 4 5 5 6 6 6 6 6 6 7 8 11 11 11 11 12 13 13 12 10 9 7 7
6 6 6 5 5 4 4 3 3 3 4 3 4 4 3 3 4 5 4 3 4 4 4 5 6 6 7 7 7 9 12 12 12 13 13 13 12 12 12 11 10 8 8